{"data":{"norad_id":64438,"intl_designator":"2025-130A","name":"STARLINK-34465","alt_names":[],"object_type":"PAYLOAD","status":"ACTIVE","operator":null,"country":"US","launch_date":"2025-06-18","launch_site_code":"AFETR","launch_vehicle":null,"mission":null,"orbit_class":"UNKNOWN","rcs_meters":null,"size_class":null,"mass_kg":null,"dimensions":null,"purposes":["comms"],"wikipedia_slug":null,"has_3d_model":false,"image_url":null,"decayed_at":null,"tle_current":{"epoch":"2026-09-20T23:18:02.691072Z","epoch_age_seconds":93702,"freshness":"FRESH","line1":"1 64438U 25130A   26263.97086448  .00008382  00000+0  25895-3 0  9993","line2":"2 64438  53.1600 257.7841 0001061 111.0041 249.1075 15.34397463 70653","mean_motion":15.34397463,"eccentricity":0.0001061,"inclination_deg":53.16,"raan_deg":257.7841,"arg_perigee_deg":111.0041,"mean_anomaly_deg":249.1075,"bstar":0.00025895,"rev_number":7065,"period_min":93.847913250884,"perigee_km":461.98496676661,"apogee_km":463.43659466568,"semimajor_km":6840.8477807161,"source":"CELESTRAK","updated_at":"2026-09-21T09:00:35.351913Z"}}}